This demonstration page uses our WeatherBlox Daily Observations layout. Learn more.

Left ArrowRight Arrow

Hourly Observations for August 14, 2022

Temp ( °F °C ) Dew Point ( °F °C ) Humidity (%) Winds ( mph kmh ) Pressure ( in mb ) Visibility ( mi km ) Precip ( " mm )
12:56 am 00:56 Cloudy 73 22.6 63 17.1 71 71 NE 6 9 30.02 1017 10 16 0.00 0.00
1:56 am 01:56 Mostly Clear 72 22 62 16.9 73 73 ENE 7 11 30.02 1017 10 16 0.00 0.00
2:56 am 02:56 Mostly Cloudy 70 21.3 62 16.5 74 74 E 3 6 30.02 1017 10 16 0.00 0.00
3:56 am 03:56 Mostly Cloudy 70 20.9 61 16.3 75 75 E 6 9 30.01 1016 10 16 0.00 0.00
4:56 am 04:56 Mostly Cloudy 69 20.7 61 16.1 75 75 E 5 7 30.03 1017 10 16 0.00 0.00
5:56 am 05:56 Mostly Cloudy 70 21 61 16 73 73 E 5 7 30.01 1016 10 16 0.00 0.00
6:56 am 06:56 Sunny 67 19.3 61 15.9 81 81 ENE 5 7 30.04 1017 10 16 0.00 0.00
7:56 am 07:56 Mostly Cloudy 69 20.6 62 16.4 77 77 NE 5 7 30.05 1018 10 16 0.00 0.00
8:56 am 08:56 Sunny 71 21.6 61 16.1 71 71 E 7 11 30.05 1018 10 16 0.00 0.00
9:56 am 09:56 Mostly Cloudy 72 22.3 61 15.9 67 67 NE 6 9 30.05 1018 10 16 0.00 0.00
10:56 am 10:56 Mostly Cloudy 74 23.4 61 16.2 64 64 ENE 7 11 30.04 1017 10 16 0.00 0.00
11:56 am 11:56 Mostly Cloudy 78 25.3 62 16.4 58 58 ESE 8 13 30.04 1017 10 16 0.00 0.00
12:56 pm 12:56 Mostly Cloudy 80 26.7 61 16.3 53 53 ENE 7 11 30.03 1017 10 16 0.00 0.00
1:56 pm 13:56 Mostly Cloudy 81 27.1 62 16.7 53 53 NE 8 13 30.03 1017 10 16 0.00 0.00
2:56 pm 14:56 Mostly Cloudy 82 27.8 62 16.7 51 51 E 5 7 30.02 1017 10 16 0.00 0.00
3:56 pm 15:56 Cloudy 80 26.8 62 16.7 54 54 ENE 8 13 30.01 1016 10 16 0.00 0.00
4:56 pm 16:56 Mostly Cloudy 80 26.4 63 17.2 57 57 ENE 7 11 30.01 1016 10 16 0.00 0.00
5:56 pm 17:56 Cloudy 79 26.1 62 16.6 56 56 ENE 6 9 29.98 1015 10 16 0.00 0.00
6:56 pm 18:56 Mostly Cloudy 78 25.5 62 16.9 59 59 NE 8 13 30.01 1016 10 16 0.00 0.00
7:56 pm 19:56 Mostly Cloudy 76 24.4 61 16.1 60 60 ENE 8 13 30.01 1016 10 16 0.00 0.00
8:56 pm 20:56 Mostly Cloudy 73 23 61 16.3 66 66 ENE 7 11 30.01 1016 10 16 0.00 0.00
9:56 pm 21:56 Cloudy 73 22.9 60 15.7 64 64 ESE 7 11 30.01 1016 10 16 0.00 0.00
10:56 pm 22:56 Mostly Cloudy 72 22.3 61 15.9 67 67 SE 5 7 29.98 1015 10 16 0.00 0.00
11:56 pm 23:56 Cloudy 72 22.1 60 15.7 67 67 ENE 6 9 30.01 1016 10 16 0.00 0.00

Powered by AerisWeather